|
Cosmos 2058 - Orbit
|
Sternwarte Stuttgart;
20:17:05
| Home | Info | Passes |
|
View from above orbital plane
|
View from above satellite
|
Ground track
|
The orbit data is extracted from the following two-line orbital elements,
1 20465U 90010A 13142.78413824 .00001446 00000-0 13541-3 0 7883
2 20465 082.4946 233.2013 0015885 244.8158 115.1416 14.93311852263125
| Epoch (UTC): | 22 May 2013 18:49:09 |
| Eccentricity: | 0.0015885 |
| inclination: | 82.4946° |
| perigee height: | 576 km |
| apogee height: | 598 km |
| right ascension of ascending node: | 233.2013° |
| argument of perigee: | 244.8158° |
| revolutions per day: | 14.93311852 |
| mean anomaly at epoch: | 115.1416° |
| orbit number at epoch: | 26312 |
The dashed part of the orbit path shows where the satellite is in the earth's shadow,
|
|